Location: Aulus
(42.7909°N, 1.3399°E)
Time: 05:51:10
(UTC+00:00)

MOS 1 - Pass Details

Date: 19 May 2025
Orbit: 876 x 890 km, 98.9° (Epoch: 18 June)

Event Time Altitude Azimuth Distance (km) Brightness Sun altitude
Exits shadow 20:10:00 - 157° (SSE) 2,792 6.4 -9.3°
Reaches altitude 10° 20:10:38 10° 157° (SSE) 2,549 6.2 -9.3°
Maximum altitude 20:16:18 74° 73° (ENE) 926 4.3 -10.2°
Drops below altitude 10° 20:21:59 10° 350° (N) 2,563 7.5 -10.9°
Sets 20:24:24 0° 348° (NNW) 3,505 8.3 -11.3°
